Date String (YYYY-MM-DD hh:mm:ss) UTC,Instrument flags,Ambient pressure (hPa),Sample flow (lpm),Bypass flow (lpm),Sample temperature (°C),Ambient temperature (°C),ASC tube jacket temperature (°C),LED temperature (°C),Box temperature (°C),Sample RH (%),Span deviation,Mass concentration (μg/m³),Mass concentration (μg/m³),Mass concentration (μg/m³)
DateTimeUTC,F1_M11,P_M11,Q1_M11,Q2_M11,T1_M11,T2_M11,T3_M11,T4_M11,T5_M11,U1_M11,ZSPAN_M11,X0_M11,X2_M11,X1_M11
2023-05-17 13:00:00,,0831.3,4.99,0.00,28.1,26.5,00.0,36.4,29.7,19.2,0000.0,0008.23,0003.84,0003.07
2023-05-17 13:01:00,,0831.3,5.00,0.00,28.1,26.5,00.0,36.4,29.7,19.7,0000.0,0008.35,0003.88,0003.07
2023-05-17 13:02:00,,0831.3,5.00,0.00,28.1,26.5,00.0,36.4,29.7,19.4,0000.0,0008.32,0003.87,0003.06
2023-05-17 13:03:00,,0831.3,5.00,0.00,28.1,26.5,00.0,36.4,29.7,19.5,0000.0,0008.53,0003.86,0003.05
2023-05-17 13:04:00,,0831.3,5.00,0.00,28.1,26.5,00.0,36.4,29.7,20.4,0000.0,0008.67,0003.83,0003.05
2023-05-17 13:05:00,,0831.3,5.00,0.00,28.1,26.5,00.0,36.4,29.8,20.6,0000.0,0008.71,0003.85,0003.05
2023-05-17 13:06:00,,0831.4,5.00,0.00,28.1,26.6,00.0,36.4,29.8,20.0,0000.0,0008.32,0003.89,0003.06
2023-05-17 13:07:00,,0831.4,5.00,0.00,28.1,26.6,00.0,36.4,29.8,20.6,0000.0,0008.16,0003.90,0003.06
2023-05-17 13:08:00,,0831.3,5.00,0.00,28.1,26.6,00.0,36.4,29.8,19.2,0000.0,0008.17,0003.90,0003.04
2023-05-17 13:09:00,,0831.4,5.00,0.00,28.1,26.6,00.0,36.4,29.8,18.9,0000.0,0008.62,0003.87,0003.03
2023-05-17 13:10:00,,0831.3,5.00,0.00,28.2,26.6,00.0,36.4,29.8,19.0,0000.0,0008.80,0003.91,0003.03
2023-05-17 13:11:00,,0831.3,5.01,0.00,28.2,26.6,00.0,36.4,29.8,19.3,0000.0,0008.62,0003.88,0003.02
2023-05-17 13:12:00,,0831.3,5.00,0.00,28.2,26.6,00.0,36.5,29.8,18.9,0000.0,0008.55,0003.84,0003.01
2023-05-17 13:13:00,,0831.3,5.01,0.00,28.2,26.6,00.0,36.5,29.8,18.8,0000.0,0008.65,0003.80,0003.00
2023-05-17 13:14:00,,0831.4,4.99,0.00,28.2,26.6,00.0,36.5,29.8,18.9,0000.0,0008.93,0003.80,0003.01
2023-05-17 13:15:00,,0831.3,5.00,0.00,28.2,26.6,00.0,36.5,29.8,19.2,0000.0,0009.06,0003.81,0003.01
2023-05-17 13:16:00,,0831.3,5.00,0.00,28.2,26.6,00.0,36.5,29.8,20.0,0000.0,0008.95,0003.77,0003.00
2023-05-17 13:17:00,,0831.4,4.99,0.00,28.2,26.7,00.0,36.5,29.8,20.4,0000.0,0008.85,0003.75,0003.01
2023-05-17 13:18:00,,0831.3,5.01,0.00,28.2,26.7,00.0,36.5,29.9,19.3,0000.0,0008.76,0003.72,0003.01
2023-05-17 13:19:00,,0831.3,5.01,0.00,28.2,26.7,00.0,36.5,29.9,19.6,0000.0,0008.82,0003.75,0003.03
2023-05-17 13:20:00,,0831.3,5.00,0.00,28.2,26.7,00.0,36.5,29.9,19.4,0000.0,0008.33,0003.81,0003.04
2023-05-17 13:21:00,,0831.4,5.00,0.00,28.2,26.7,00.0,36.5,29.9,19.3,0000.0,0008.22,0003.79,0003.05
2023-05-17 13:22:00,,0831.3,4.99,0.00,28.2,26.7,00.0,36.5,29.9,19.5,0000.0,0008.22,0003.81,0003.06
2023-05-17 13:23:00,,0831.3,5.00,0.00,28.2,26.7,00.0,36.5,29.9,19.6,0000.0,0008.21,0003.81,0003.07
2023-05-17 13:24:00,,0831.3,5.00,0.00,28.3,26.7,00.0,36.5,29.9,19.7,0000.0,0008.09,0003.84,0003.08
2023-05-17 13:25:00,,0831.4,5.00,0.00,28.3,26.7,00.0,36.5,29.9,19.7,0000.0,0007.80,0003.86,0003.07
2023-05-17 13:26:00,,0831.3,5.00,0.00,28.3,26.7,00.0,36.6,29.9,19.7,0000.0,0007.34,0003.86,0003.08
2023-05-17 13:27:00,,0831.4,5.00,0.00,28.3,26.7,00.0,36.6,29.9,19.4,0000.0,0007.48,0003.90,0003.09
2023-05-17 13:28:00,,0831.4,4.99,0.00,28.3,26.8,00.0,36.6,29.9,19.5,0000.0,0007.51,0003.90,0003.07
2023-05-17 13:29:00,,0831.4,5.00,0.00,28.3,26.8,00.0,36.6,29.9,19.8,0000.0,0008.19,0003.94,0003.07
2023-05-17 13:30:00,,0831.4,5.00,0.00,28.3,26.8,00.0,36.6,29.9,19.5,0000.0,0008.43,0003.95,0003.08
2023-05-17 13:31:00,,0831.4,5.00,0.00,28.3,26.8,00.0,36.6,29.9,19.5,0000.0,0008.27,0003.87,0003.05
2023-05-17 13:32:00,,0831.4,5.00,0.00,28.3,26.8,00.0,36.6,29.9,19.4,0000.0,0008.35,0003.87,0003.04
2023-05-17 13:33:00,,0831.4,5.00,0.00,28.3,26.8,00.0,36.6,30.0,19.3,0000.0,0008.45,0003.89,0003.03
2023-05-17 13:34:00,,0831.4,5.00,0.00,28.3,26.8,00.0,36.6,30.0,19.4,0000.0,0008.48,0003.89,0003.03
2023-05-17 13:35:00,,0831.4,5.00,0.00,28.4,26.8,00.0,36.6,30.0,19.6,0000.0,0008.53,0003.90,0003.02
2023-05-17 13:36:00,,0831.4,5.01,0.00,28.4,26.8,00.0,36.6,30.0,19.9,0000.0,0008.42,0003.88,0003.01
2023-05-17 13:37:00,,0831.4,5.00,0.00,28.4,26.8,00.0,36.6,30.0,19.2,0000.0,0008.40,0003.87,0002.99
2023-05-17 13:38:00,,0831.4,5.01,0.00,28.4,26.8,00.0,36.7,30.0,19.3,0000.0,0008.30,0003.86,0002.98
2023-05-17 13:39:00,,0831.4,4.99,0.00,28.4,26.8,00.0,36.7,30.0,20.5,0000.0,0008.16,0003.82,0002.97
2023-05-17 13:40:00,,0831.4,5.00,0.00,28.4,26.9,00.0,36.7,30.0,21.8,0000.0,0007.87,0003.85,0003.00
2023-05-17 13:41:00,,0831.4,5.00,0.00,28.4,26.9,00.0,36.7,30.0,22.3,0000.0,0007.93,0003.85,0002.99
2023-05-17 13:42:00,,0831.4,4.99,0.00,28.4,26.9,00.0,36.7,30.0,22.2,0000.0,0008.00,0003.86,0003.02
2023-05-17 13:43:00,,0831.3,5.00,0.00,28.4,26.9,00.0,36.7,30.0,21.3,0000.0,0008.11,0003.93,0003.07
2023-05-17 13:44:00,,0831.4,5.01,0.00,28.4,26.9,00.0,36.7,30.0,22.3,0000.0,0008.02,0003.94,0003.10
2023-05-17 13:45:00,,0831.4,5.00,0.00,28.4,26.9,00.0,36.7,30.0,22.3,0000.0,0008.11,0003.96,0003.11
2023-05-17 13:46:00,,0831.4,5.00,0.00,28.4,26.9,00.0,36.7,30.1,22.2,0000.0,0008.07,0003.94,0003.12
2023-05-17 13:47:00,,0831.4,5.00,0.00,28.4,26.9,00.0,36.7,30.1,22.9,0000.0,0007.98,0003.92,0003.13
2023-05-17 13:48:00,,0831.4,4.99,0.00,28.4,26.9,00.0,36.7,30.1,22.2,0000.0,0008.00,0003.95,0003.17
2023-05-17 13:49:00,,0831.4,4.99,0.00,28.5,26.9,00.0,36.7,30.1,21.5,0000.0,0008.06,0003.97,0003.19
2023-05-17 13:50:00,,0831.4,5.00,0.00,28.5,26.9,00.0,36.7,30.1,20.8,0000.0,0008.24,0004.00,0003.21
2023-05-17 13:51:00,,0831.4,5.01,0.00,28.5,26.9,00.0,36.7,30.1,20.2,0000.0,0008.17,0003.96,0003.21
2023-05-17 13:52:00,,0831.4,5.01,0.00,28.5,27.0,00.0,36.8,30.1,20.7,0000.0,0007.71,0003.95,0003.22
2023-05-17 13:53:00,,0831.4,5.01,0.00,28.5,27.0,00.0,36.8,30.1,20.4,0000.0,0007.79,0004.01,0003.21
2023-05-17 13:54:00,,0831.4,5.00,0.00,28.5,27.0,00.0,36.8,30.1,19.8,0000.0,0007.74,0003.97,0003.21
2023-05-17 13:55:00,,0831.4,4.99,0.00,28.5,27.0,00.0,36.8,30.1,19.6,0000.0,0007.90,0003.99,0003.21
2023-05-17 13:56:00,,0831.4,4.99,0.00,28.5,27.0,00.0,36.8,30.1,19.6,0000.0,0008.05,0004.04,0003.21
2023-05-17 13:57:00,,0831.4,4.99,0.00,28.5,27.0,00.0,36.8,30.1,19.7,0000.0,0008.09,0004.06,0003.21
2023-05-17 13:58:00,,0831.4,5.00,0.00,28.5,27.0,00.0,36.8,30.2,19.7,0000.0,0008.18,0004.09,0003.22
2023-05-17 13:59:00,,0831.4,5.00,0.00,28.5,27.0,00.0,36.8,30.2,19.7,0000.0,0008.30,0004.08,0003.19
